Tracking 18844 objects as of 21-Nov-2017
HD Live streaming from Space Station
objects crossing your sky now

ASTRA 2B

Track ASTRA 2B now!
ASTRA 2B is classified as:


NORAD ID: 26494
Int'l Code: 2000-054A
Perigee: 35,771.4 km
Apogee: 35,815.6 km
Inclination: 2.5 °
Period: 1,436.1 minutes
Semi major axis: 42164 km
RCS: 17 m2 (large)
Launch date: September 14, 2000
Source: SOCIETE EUROPEENNE DES SATELLITES (SES)
Launch site: FRENCH GUIANA (FRGUI)

Direct-to-home; broadcasting, multimedia; 30 Ku-band for first five years, 28 after; UK and Ireland.
aabbcc
Your satellite tracking list
Your tracking list is empty




NASA's NSSDC Master Catalog

Two Line Element Set (TLE):
1 26494U 00054A   17325.26957347 -.00000149  00000-0  00000+0 0  9999
2 26494   2.5318  78.4304 0005243 176.7603 242.7636  1.00272635 62853
Source of the keplerian elements: AFSPC